| time (UTC) | temp C | wind direction | speed KPH | gust KPH | rain 1hr cm | rain 24hr cm | rain mn cm | humidity % | barometer mb |
| 20260503033051 | 13 | 325 | 0.0 | 4.8 | 0.00 | 0.00 | 0.00 | 48 | 1015.8 |
| 20260503031536 | 13 | 30 | 3.2 | 4.8 | 0.00 | 0.00 | 0.00 | 45 | 1015.5 |
| 20260503030031 | 14 | 321 | 0.0 | 6.4 | 0.00 | 0.00 | 0.00 | 44 | 1015.2 |
| 20260503024535 | 13 | 333 | 3.2 | 6.4 | 0.00 | 0.00 | 0.00 | 44 | 1015.1 |
| 20260503023046 | 14 | 74 | 3.2 | 4.8 | 0.00 | 0.00 | 0.00 | 43 | 1015.1 |
| 20260503021532 | 15 | 75 | 3.2 | 3.2 | 0.00 | 0.00 | 0.00 | 43 | 1015.0 |
| 20260503020031 | 16 | 65 | 3.2 | 6.4 | 0.00 | 0.00 | 0.00 | 42 | 1015.0 |
| 20260503014530 | 17 | 41 | 1.6 | 6.4 | 0.00 | 0.00 | 0.00 | 39 | 1015.0 |
| 20260503013032 | 18 | 49 | 1.6 | 4.8 | 0.00 | 0.00 | 0.00 | 38 | 1015.0 |
| 20260503011538 | 18 | 293 | 1.6 | 4.8 | 0.00 | 0.00 | 0.00 | 36 | 1015.0 |
| 20260503010033 | 18 | 51 | 0.0 | 3.2 | 0.00 | 0.00 | 0.00 | 37 | 1015.2 |
| 20260503004535 | 18 | 0 | 3.2 | 8.0 | 0.00 | 0.00 | 0.00 | 37 | 1015.3 |
| 20260503003035 | 18 | 160 | 0.0 | 4.8 | 0.00 | 0.00 | 0.00 | 37 | 1015.4 |
| 20260503001538 | 18 | 233 | 1.6 | 9.7 | 0.00 | 0.00 | 0.00 | 37 | 1015.6 |
| 20260503000047 | 18 | 119 | 1.6 | 8.0 | 0.00 | 0.00 | 0.00 | 38 | 1015.7 |
| 20260502234532 | 18 | 149 | 1.6 | 14.5 | 0.00 | 0.00 | 0.00 | 37 | 1015.8 |
| 20260502233034 | 19 | 82 | 4.8 | 14.5 | 0.00 | 0.00 | 0.00 | 37 | 1015.7 |
| 20260502231540 | 19 | 82 | 4.8 | 14.5 | 0.00 | 0.00 | 0.00 | 38 | 1016.2 |
| 20260502230033 | 18 | 51 | 4.8 | 12.9 | 0.00 | 0.00 | 0.00 | 39 | 1016.4 |
| 20260502224534 | 18 | 333 | 3.2 | 16.1 | 0.00 | 0.00 | 0.00 | 39 | 1016.5 |
| 20260502223030 | 18 | 69 | 4.8 | 22.5 | 0.00 | 0.00 | 0.00 | 40 | 1016.9 |
| 20260502221532 | 18 | 63 | 6.4 | 16.1 | 0.00 | 0.00 | 0.00 | 40 | 1017.0 |
| 20260502220031 | 18 | 316 | 4.8 | 14.5 | 0.00 | 0.00 | 0.00 | 40 | 1017.3 |
| 20260502214529 | 17 | 23 | 6.4 | 19.3 | 0.00 | 0.00 | 0.00 | 41 | 1017.4 |
| 20260502213036 | 17 | 293 | 4.8 | 12.9 | 0.00 | 0.00 | 0.00 | 41 | 1017.6 |
| 20260502211530 | 17 | 360 | 1.6 | 8.0 | 0.00 | 0.00 | 0.00 | 41 | 1017.8 |
| 20260502210031 | 18 | 334 | 4.8 | 19.3 | 0.00 | 0.00 | 0.00 | 40 | 1017.9 |
| 20260502204532 | 18 | 325 | 6.4 | 14.5 | 0.00 | 0.00 | 0.00 | 40 | 1018.1 |
| 20260502203035 | 17 | 49 | 4.8 | 27.4 | 0.00 | 0.00 | 0.00 | 41 | 1018.2 |
| 20260502201531 | 17 | 310 | 8.0 | 19.3 | 0.00 | 0.00 | 0.00 | 43 | 1018.4 |
| 20260502200041 | 16 | 321 | 6.4 | 19.3 | 0.00 | 0.00 | 0.00 | 44 | 1018.6 |
| 20260502194533 | 16 | 27 | 14.5 | 24.1 | 0.00 | 0.00 | 0.00 | 45 | 1018.8 |
| 20260502193030 | 16 | 56 | 17.7 | 25.7 | 0.00 | 0.00 | 0.00 | 45 | 1019.0 |
| 20260502191530 | 16 | 61 | 14.5 | 24.1 | 0.00 | 0.00 | 0.00 | 44 | 1019.0 |
| 20260502190035 | 16 | 36 | 12.9 | 22.5 | 0.00 | 0.00 | 0.00 | 46 | 1019.1 |
| 20260502184537 | 15 | 43 | 12.9 | 19.3 | 0.00 | 0.00 | 0.00 | 46 | 1019.2 |
| 20260502183030 | 16 | 344 | 14.5 | 29.0 | 0.00 | 0.00 | 0.00 | 45 | 1019.2 |
| 20260502181531 | 16 | 45 | 11.3 | 25.7 | 0.00 | 0.00 | 0.00 | 45 | 1019.2 |
| 20260502163030 | 16 | 53 | 19.3 | 27.4 | 0.00 | 0.00 | 0.00 | 43 | 1019.2 |
| 20260502161532 | 16 | 46 | 12.9 | 29.0 | 0.00 | 0.00 | 0.00 | 45 | 1019.2 |
| 20260502151540 | 14 | 27 | 12.9 | 25.7 | 0.00 | 0.00 | 0.00 | 47 | 1019.2 |
| 20260502123043 | 8 | 325 | 4.8 | 16.1 | 0.00 | 0.00 | 0.00 | 60 | 1018.2 |
| 20260502121535 | 7 | 46 | 12.9 | 19.3 | 0.00 | 0.00 | 0.00 | 59 | 1017.8 |
| 20260502114530 | 8 | 347 | 16.1 | 25.7 | 0.00 | 0.00 | 0.00 | 57 | 1017.6 |
| 20260502113036 | 8 | 24 | 11.3 | 19.3 | 0.00 | 0.00 | 0.00 | 58 | 1017.5 |
| 20260502111544 | 8 | 26 | 3.2 | 20.9 | 0.00 | 0.00 | 0.00 | 56 | 1017.2 |
| 20260502110035 | 8 | 32 | 14.5 | 20.9 | 0.00 | 0.00 | 0.00 | 55 | 1016.9 |
| 20260502104533 | 7 | 323 | 6.4 | 9.7 | 0.00 | 0.00 | 0.00 | 55 | 1016.9 |
| 20260502103030 | 8 | 322 | 3.2 | 6.4 | 0.00 | 0.00 | 0.00 | 52 | 1016.5 |
| 20260502101530 | 9 | 330 | 3.2 | 14.5 | 0.00 | 0.00 | 0.00 | 49 | 1016.3 |
| 20260502070038 | 8 | 333 | 8.0 | 14.5 | 0.00 | 0.00 | 0.00 | 45 | 1014.9 |
| 20260502064535 | 8 | 326 | 4.8 | 8.0 | 0.00 | 0.00 | 0.00 | 45 | 1014.8 |
| 20260502063033 | 9 | 326 | 4.8 | 6.4 | 0.00 | 0.00 | 0.00 | 43 | 1014.9 |
| 20260502061542 | 10 | 17 | 3.2 | 12.9 | 0.00 | 0.00 | 0.00 | 41 | 1014.9 |
| 20260502060037 | 11 | 41 | 6.4 | 17.7 | 0.00 | 0.00 | 0.00 | 40 | 1014.9 |
| 20260502054535 | 10 | 315 | 3.2 | 6.4 | 0.00 | 0.00 | 0.00 | 39 | 1014.7 |
| 20260502053045 | 11 | 45 | 1.6 | 9.7 | 0.00 | 0.00 | 0.00 | 36 | 1014.7 |
| 20260502051534 | 11 | 17 | 4.8 | 9.7 | 0.00 | 0.00 | 0.00 | 34 | 1014.9 |
| 20260502050030 | 12 | 355 | 4.8 | 14.5 | 0.00 | 0.00 | 0.00 | 32 | 1014.7 |
| 20260502044535 | 13 | 313 | 12.9 | 17.7 | 0.00 | 0.00 | 0.00 | 32 | 1014.7 |
| 20260502043039 | 13 | 303 | 12.9 | 17.7 | 0.00 | 0.00 | 0.00 | 32 | 1014.6 |
| 20260502041532 | 12 | 311 | 11.3 | 16.1 | 0.00 | 0.00 | 0.00 | 32 | 1014.6 |
| 20260502040030 | 12 | 277 | 6.4 | 11.3 | 0.00 | 0.00 | 0.00 | 29 | 1014.6 |
| 20260502034533 | 12 | 294 | 3.2 | 11.3 | 0.00 | 0.00 | 0.00 | 29 | 1014.6 |